Location: Horowhenua
(40.7500°S, 175.3333°E)
Time: 06:06:59
(UTC+00:00)

Helios 1B rocket - Pass Details

Date: 28 January 2023
Orbit: 557 x 571 km, 98.2° (Epoch: 01 April)

Event Time Altitude Azimuth Distance (km) Brightness Sun altitude
Exits shadow 16:20:25 - 343° (NNW) 1,966 4.7 -10.8°
Reaches altitude 10° 16:20:38 10° 341° (NNW) 1,892 4.6 -10.7°
Maximum altitude 16:24:18 32° 278° (W) 1,019 3.2 -10.2°
Drops below altitude 10° 16:28:01 10° 214° (SSW) 1,907 5.1 -9.6°
Sets 16:30:22 0° 203° (SSW) 2,811 6.1 -9.2°
